Wind_Speed
15 15 16 16 17 17 18 17 17 17 18 18 19 20 21 21 21 22 21 21 20 20 20 19 19 19 19 18 18 18 18 16 16 16 16 15 14 14 14 13 13 12 11 10 10 10 9 9 8
17 17 17 18 19 19 19 19 19 19 19 19 20 22 22 23 23 22 22 23 22 22 22 21 21 21 21 20 20 20 20 18 17 17 17 17 16 16 16 15 14 14 13 12 12 11 11 10 10
18 18 19 20 20 20 20 20 20 20 20 21 22 23 24 24 24 24 24 24 24 24 24 23 23 23 23 22 21 21 21 21 20 19 18 18 17 17 17 16 16 16 15 14 14 13 13 12 12
20 20 21 22 22 22 22 22 22 21 22 22 23 24 25 25 25 25 25 26 26 26 26 26 26 25 25 24 24 23 23 22 22 21 21 20 19 18 18 18 18 17 17 16 16 15 14 14 14
21 22 23 23 23 23 24 24 24 23 23 24 25 26 26 27 27 27 26 27 28 29 29 28 28 27 27 26 27 26 24 24 24 23 23 22 22 21 20 19 19 18 18 18 18 17 16 16 16
23 24 24 25 25 25 25 25 26 26 26 26 27 28 28 28 28 29 28 28 29 30 31 31 30 30 29 29 29 29 28 27 26 26 25 25 24 23 22 22 21 20 19 19 19 19 18 17 17
24 25 26 26 26 26 26 27 27 27 28 28 29 29 30 30 30 31 31 31 31 32 32 32 33 32 32 32 31 31 30 29 29 28 27 26 26 25 24 24 23 23 22 21 21 20 20 19 19
24 26 26 26 26 26 27 28 28 28 29 29 30 30 31 31 32 33 33 33 33 33 34 34 34 34 34 34 34 33 33 32 31 30 30 29 28 27 26 26 26 25 24 23 23 22 22 21 21
24 26 27 26 26 27 27 28 28 28 29 30 31 32 32 33 34 34 34 35 35 35 35 35 36 35 35 35 35 35 35 34 33 33 32 32 31 30 29 28 28 27 27 26 25 24 23 23 23
24 26 27 27 27 27 27 28 28 29 30 31 31 33 33 34 35 35 35 35 35 36 36 37 37 37 37 36 36 36 37 37 35 34 33 33 33 32 31 30 30 29 28 27 27 26 25 25 25
25 26 27 28 28 28 29 29 30 30 31 31 32 32 33 34 35 35 35 35 36 37 37 38 39 38 38 38 38 38 38 39 39 37 35 35 35 34 33 32 32 31 30 29 29 27 26 26 27
26 26 27 28 29 30 30 30 31 32 32 32 33 33 34 34 35 36 36 37 37 38 38 38 39 39 39 39 39 39 39 40 40 39 37 37 37 36 34 34 33 33 32 31 30 29 29 28 27
26 26 26 27 28 30 30 31 32 32 33 33 33 34 35 35 35 37 38 38 38 39 39 40 41 41 40 40 41 41 41 42 41 41 40 39 38 37 36 36 35 36 35 34 33 32 31 30 29
26 26 26 27 28 29 30 30 32 33 33 34 34 34 36 37 37 38 38 39 39 40 40 41 42 42 42 42 42 42 43 43 43 43 42 42 40 39 38 38 38 38 38 37 35 34 33 32 31
26 27 27 27 28 29 30 30 32 33 33 34 34 35 36 38 38 38 39 39 40 40 41 42 43 44 44 44 44 44 44 44 45 45 44 44 43 41 41 40 40 40 39 38 36 35 34 33 32
26 27 27 27 28 29 30 31 33 33 33 34 34 35 36 38 38 38 39 40 40 40 41 44 45 45 45 45 44 46 46 45 46 45 45 45 43 41 40 40 41 41 41 39 37 37 35 34 33
26 27 28 29 29 29 30 31 33 33 33 33 33 34 35 36 37 37 39 39 40 40 40 42 45 46 46 45 45 45 46 46 46 46 46 46 45 43 41 41 42 42 41 41 39 38 37 36 35
27 27 28 29 29 29 30 31 32 32 32 32 32 33 33 34 34 35 36 37 38 39 40 41 43 45 45 46 45 45 46 46 47 46 46 46 45 44 43 43 43 44 43 42 41 40 38 37 36
27 28 29 29 29 29 29 29 29 30 31 31 32 32 32 32 33 33 34 35 36 37 38 39 42 43 44 45 44 45 46 46 48 47 46 45 44 43 43 44 44 44 44 44 43 41 39 39 38
28 29 29 28 28 29 29 28 28 29 30 31 31 31 31 32 32 32 33 34 36 37 38 38 40 42 44 44 44 44 45 45 47 47 46 45 44 43 41 41 43 44 44 44 44 43 41 40 39
28 29 29 29 28 29 29 28 27 27 28 30 31 30 31 32 33 33 34 34 35 37 38 39 40 40 42 44 44 45 45 46 46 46 46 45 45 44 43 42 41 42 42 43 43 43 42 41 40
29 29 30 29 29 29 28 28 25 26 27 29 30 31 31 31 32 32 33 34 34 35 37 39 40 40 41 43 44 45 44 45 45 45 46 46 45 45 43 43 43 42 42 42 43 44 44 42 41
29 30 30 29 29 30 28 29 25 26 27 28 30 31 30 30 29 29 31 32 34 34 35 37 39 40 41 42 43 44 43 44 45 45 46 46 46 45 44 43 44 43 42 41 42 44 44 43 41
30 30 31 30 30 30 29 28 26 26 26 28 30 30 29 29 28 28 29 30 32 33 34 36 37 39 40 42 43 44 44 44 44 45 45 46 46 46 45 44 44 43 43 43 42 43 43 43 43
30 30 31 31 30 30 30 29 28 26 27 28 29 29 28 28 28 28 29 30 31 32 33 34 36 38 40 41 42 43 43 44 44 45 45 45 46 47 46 45 44 44 43 43 42 42 43 43 43
30 30 30 31 31 31 29 28 27 27 26 27 28 27 27 28 28 28 29 29 29 30 31 33 35 37 38 40 41 43 43 44 45 45 45 45 45 46 46 45 45 44 44 44 43 42 43 43 43
31 30 30 30 31 32 30 28 27 26 26 27 27 27 26 27 28 28 29 29 29 30 31 32 34 37 38 40 40 42 43 43 45 46 46 46 46 46 45 44 45 46 46 45 45 44 44 44 44
31 30 29 29 30 31 31 29 28 27 26 26 27 27 27 27 28 28 28 28 28 29 31 32 33 36 37 38 40 42 43 43 44 46 47 47 48 48 46 45 45 46 47 47 47 46 46 46 45
29 29 28 29 30 31 31 30 29 28 29 28 27 27 27 28 28 28 27 27 27 28 29 31 32 34 36 37 38 41 43 44 45 46 46 47 48 48 47 46 47 47 47 48 48 47 47 48 47
29 29 29 29 30 30 30 30 29 29 30 30 29 28 28 28 27 28 27 27 27 28 28 29 30 31 34 36 38 40 42 44 45 46 46 46 47 48 48 47 47 47 47 48 48 48 47 48 48
Wind_Direction
269 268 267 266 265 263 262 263 262 262 260 258 256 254 251 250 249 248 246 244 243 243 241 240 239 241 241 242 241 238 235 234 233 232 232 230 230 230 229 228 228 226 228 231 229 229 230 230 229
268 267 266 264 264 263 262 262 262 262 261 258 256 254 253 252 251 250 247 246 244 243 242 241 240 241 242 242 242 239 237 235 233 233 234 233 232 232 232 233 232 229 230 232 233 234 234 234 233
267 266 265 264 264 263 264 264 263 262 262 260 257 255 254 253 252 251 248 247 245 244 243 242 241 242 243 242 242 241 237 235 234 234 235 235 233 232 232 234 235 234 233 234 235 237 237 237 237
267 267 267 265 265 264 265 265 263 263 263 262 260 257 255 255 254 253 251 248 246 245 243 242 242 242 243 243 244 243 239 236 234 235 236 236 235 235 235 235 236 237 237 237 237 238 239 239 240
266 266 267 267 267 265 264 265 265 264 264 264 262 260 259 258 257 256 254 251 248 247 245 244 243 243 243 243 243 242 241 239 237 235 236 237 237 236 236 238 237 238 239 240 240 239 239 239 241
266 266 267 268 267 266 265 265 266 266 266 266 264 262 260 259 258 257 255 252 250 248 247 245 243 243 243 243 243 242 241 241 238 237 237 238 239 238 237 238 240 241 241 242 242 241 241 240 240
266 266 267 268 269 267 266 266 266 266 266 266 266 264 262 260 260 259 256 252 250 248 246 245 244 243 243 244 243 242 241 240 239 238 238 239 239 239 239 239 241 243 243 244 243 242 241 241 241
269 268 267 267 267 267 267 266 266 265 266 266 266 265 264 262 260 259 256 253 249 248 246 245 244 243 243 244 243 242 241 240 239 238 238 239 239 241 241 241 242 243 244 244 243 242 241 242 243
273 270 269 267 266 267 268 267 266 265 265 266 266 265 264 262 261 258 256 253 250 248 247 246 244 243 243 243 243 242 241 240 239 238 238 239 240 241 242 242 242 244 244 243 243 243 243 244 244
277 275 272 268 267 268 268 268 267 267 267 267 266 265 264 262 260 258 256 254 251 249 249 247 245 244 243 243 242 241 241 240 239 238 238 238 239 241 242 243 243 243 243 244 244 244 243 244 244
281 278 274 270 269 269 269 269 269 269 269 268 267 266 265 264 261 258 256 255 253 250 250 248 246 245 244 243 242 241 241 240 240 239 237 237 237 239 241 242 243 242 242 243 244 244 243 243 243
283 281 277 273 271 270 270 270 269 270 270 269 267 266 265 265 262 259 257 256 254 250 249 248 247 245 244 243 242 241 240 240 240 239 237 237 236 238 240 241 243 243 242 241 242 243 243 243 243
285 283 280 276 274 272 271 271 270 271 271 271 269 267 266 264 263 260 258 257 255 252 250 248 248 246 244 243 243 242 240 239 239 239 239 238 237 239 240 242 243 243 242 241 242 243 245 245 245
288 285 282 279 277 274 272 273 273 272 273 272 271 269 268 267 265 262 260 258 256 253 251 249 248 246 244 244 243 242 241 240 239 240 241 241 240 239 240 242 243 243 241 241 242 244 244 245 245
289 287 284 282 279 275 274 275 275 276 275 274 272 271 270 269 267 264 261 259 257 255 252 250 248 246 245 245 244 242 241 241 240 241 241 242 241 240 241 241 242 242 242 241 241 243 244 245 246
291 290 286 284 281 277 276 278 278 278 277 275 274 273 272 270 268 266 262 260 258 256 253 250 248 247 246 245 244 242 242 241 240 240 241 241 241 240 240 241 241 241 240 241 241 242 243 244 246
294 292 290 288 284 280 279 281 281 279 278 276 276 275 273 271 269 267 263 260 258 256 255 252 248 247 246 244 243 241 240 240 240 240 241 242 242 241 240 240 240 239 239 240 241 242 244 244 246
295 295 294 291 286 283 283 283 282 281 279 277 277 276 274 274 272 269 264 260 258 256 255 253 249 247 245 242 242 241 240 240 239 240 242 242 242 241 240 240 241 241 240 241 242 243 244 245 246
297 296 296 293 288 285 286 285 285 282 280 278 278 278 277 276 274 270 265 262 258 256 254 253 250 247 244 242 242 241 239 239 239 240 242 242 241 240 240 240 241 242 242 242 242 243 244 245 246
297 298 298 294 291 289 289 288 286 283 281 279 279 279 278 276 274 270 267 264 260 256 254 253 250 246 242 242 242 242 241 239 239 239 240 240 240 240 240 241 241 242 242 241 242 243 244 245 247
299 300 300 296 293 291 292 290 288 284 281 280 279 279 278 277 275 271 267 265 262 257 254 252 250 245 244 242 241 241 241 239 238 237 238 238 239 241 241 242 242 242 243 243 242 242 243 245 247
301 301 301 297 295 293 294 294 291 286 282 281 280 280 281 280 277 274 269 265 262 258 255 252 249 247 244 242 240 241 241 238 237 236 236 237 239 241 242 243 242 243 243 242 242 243 243 243 244
303 303 301 298 296 294 294 295 295 291 285 284 282 283 283 281 278 276 271 267 263 259 257 253 249 248 244 241 241 241 240 238 236 236 237 237 239 240 242 242 242 242 243 244 243 242 242 242 243
305 304 302 299 298 296 295 295 295 292 290 288 286 285 284 281 279 277 275 271 266 262 260 256 249 246 244 243 242 240 239 237 237 236 237 237 238 240 242 242 243 243 243 244 244 243 242 243 243
305 306 304 303 300 298 297 296 296 295 294 291 289 287 286 283 281 279 277 274 269 264 261 257 251 247 245 244 242 240 240 238 237 237 238 238 239 240 242 243 244 244 244 244 244 243 242 242 243
304 305 303 301 300 298 298 299 298 296 294 291 290 289 286 283 282 280 277 277 271 265 262 258 252 248 245 245 244 242 241 239 239 239 240 239 239 240 241 242 243 243 243 243 244 245 243 243 243
303 302 301 299 298 297 296 297 295 296 295 294 291 288 285 283 283 282 280 277 271 268 264 260 254 250 248 247 245 243 241 242 241 240 241 241 241 241 242 241 241 242 242 242 243 245 245 243 244
302 302 301 300 300 300 297 297 297 298 300 297 291 287 285 284 284 283 280 277 273 268 265 262 257 253 251 248 245 243 242 243 243 242 242 243 242 242 242 241 241 243 243 243 244 245 246 245 247
302 302 300 299 298 297 298 297 297 299 300 298 294 289 285 285 284 282 281 279 276 270 266 263 259 255 252 250 248 247 245 244 243 243 242 242 243 245 245 242 243 244 243 244 245 246 248 247 247
299 300 299 298 297 295 295 297 297 297 298 297 294 291 287 285 283 280 278 279 277 273 269 265 260 257 253 251 251 249 248 246 245 244 243 244 244 244 244 243 243 244 244 244 246 247 248 247 246
Height
5819 5819 5819 5819 5819 5818 5818 5818 5818 5818 5818 5818 5818 5819 5819 5820 5822 5825 5824 5824 5825 5826 5827 5828 5829 5830 5831 5832 5834 5835 5836 5837 5838 5839 5840 5841 5842 5843 5844 5844 5845 5846 5847 5847 5848 5849 5849 5850 5851
5815 5815 5815 5815 5814 5813 5814 5814 5814 5814 5814 5814 5813 5813 5814 5814 5816 5817 5818 5819 5820 5821 5822 5823 5825 5826 5827 5829 5830 5831 5833 5834 5835 5836 5837 5838 5839 5840 5841 5842 5842 5843 5844 5845 5846 5847 5848 5848 5849
5810 5810 5810 5809 5808 5809 5809 5809 5809 5809 5809 5808 5808 5808 5808 5809 5810 5811 5812 5813 5815 5816 5817 5819 5820 5821 5823 5824 5826 5827 5829 5830 5831 5832 5834 5835 5836 5837 5838 5839 5840 5841 5842 5843 5844 5844 5845 5846 5847
5805 5805 5805 5804 5803 5804 5804 5804 5803 5803 5803 5803 5802 5802 5802 5803 5804 5804 5805 5807 5808 5810 5811 5813 5815 5816 5818 5819 5821 5822 5824 5826 5827 5828 5830 5831 5833 5834 5835 5836 5837 5838 5839 5840 5841 5842 5843 5844 5844
5799 5799 5798 5797 5797 5798 5798 5797 5797 5797 5797 5796 5796 5796 5796 5796 5796 5797 5799 5800 5801 5803 5805 5806 5808 5810 5812 5814 5815 5817 5819 5821 5822 5824 5825 5827 5828 5830 5831 5832 5833 5834 5835 5836 5837 5839 5840 5841 5841
5792 5792 5792 5791 5791 5792 5791 5791 5790 5790 5790 5789 5789 5789 5789 5789 5789 5790 5791 5792 5793 5795 5797 5799 5801 5803 5805 5807 5809 5811 5813 5815 5817 5818 5820 5822 5824 5825 5826 5828 5829 5830 5832 5833 5834 5835 5836 5837 5838
5786 5785 5784 5785 5785 5785 5784 5783 5783 5783 5782 5782 5781 5781 5781 5782 5782 5782 5783 5784 5785 5787 5789 5791 5794 5796 5798 5800 5802 5804 5806 5808 5811 5812 5814 5816 5818 5820 5822 5823 5824 5826 5827 5828 5830 5831 5832 5833 5834
5778 5778 5777 5777 5777 5777 5777 5776 5775 5775 5775 5774 5773 5773 5773 5774 5773 5773 5774 5775 5777 5779 5781 5783 5785 5788 5790 5792 5794 5796 5799 5801 5804 5806 5808 5811 5813 5814 5816 5818 5819 5821 5822 5823 5825 5826 5827 5828 5830
5771 5771 5770 5770 5769 5769 5769 5768 5768 5767 5766 5766 5765 5765 5765 5765 5764 5764 5765 5766 5768 5770 5772 5774 5777 5779 5782 5784 5786 5789 5791 5794 5796 5799 5801 5803 5806 5808 5810 5812 5813 5815 5816 5818 5819 5821 5822 5823 5825
5764 5763 5763 5762 5762 5761 5761 5760 5759 5759 5758 5757 5757 5756 5755 5756 5755 5756 5756 5757 5759 5761 5763 5765 5768 5770 5773 5775 5778 5780 5783 5786 5788 5791 5793 5796 5798 5801 5803 5805 5807 5808 5810 5812 5813 5815 5816 5818 5819
5757 5756 5755 5754 5753 5753 5752 5751 5751 5750 5750 5749 5748 5747 5746 5746 5746 5746 5747 5748 5749 5751 5753 5755 5758 5761 5763 5766 5769 5772 5774 5777 5779 5782 5785 5788 5791 5793 5796 5798 5800 5802 5803 5805 5807 5809 5810 5812 5813
5750 5748 5747 5746 5745 5744 5743 5743 5742 5741 5741 5740 5739 5738 5737 5737 5736 5737 5737 5738 5739 5741 5743 5745 5748 5751 5753 5756 5760 5763 5765 5768 5771 5773 5777 5779 5782 5785 5788 5790 5792 5795 5797 5799 5800 5802 5804 5806 5807
5743 5741 5739 5738 5737 5736 5735 5734 5733 5732 5731 5730 5729 5729 5728 5727 5727 5727 5727 5728 5729 5730 5732 5734 5737 5740 5743 5746 5750 5753 5755 5758 5761 5764 5767 5771 5774 5777 5779 5782 5784 5787 5789 5791 5793 5795 5797 5799 5801
5736 5733 5731 5730 5728 5727 5726 5725 5724 5723 5722 5720 5719 5719 5718 5717 5717 5716 5716 5717 5718 5719 5721 5723 5725 5728 5732 5735 5738 5742 5745 5748 5751 5754 5758 5761 5765 5768 5771 5773 5776 5778 5781 5783 5786 5788 5790 5792 5794
5728 5726 5724 5722 5720 5719 5718 5717 5715 5713 5712 5711 5710 5709 5708 5706 5705 5705 5705 5705 5706 5707 5708 5710 5713 5717 5720 5723 5727 5730 5734 5737 5741 5744 5748 5751 5754 5758 5761 5764 5767 5770 5772 5774 5777 5780 5783 5785 5787
5721 5719 5717 5715 5712 5711 5711 5709 5706 5704 5703 5701 5700 5698 5697 5695 5694 5693 5693 5693 5694 5694 5695 5697 5700 5704 5707 5711 5715 5718 5722 5726 5729 5733 5737 5741 5744 5748 5751 5755 5758 5760 5763 5766 5769 5772 5775 5777 5779
5714 5712 5710 5708 5705 5703 5702 5700 5697 5694 5693 5691 5690 5688 5686 5684 5682 5681 5680 5680 5681 5682 5683 5684 5687 5690 5694 5698 5702 5706 5710 5714 5718 5722 5726 5730 5734 5738 5741 5745 5748 5751 5754 5757 5760 5763 5766 5769 5771
5708 5706 5703 5700 5697 5695 5693 5691 5688 5685 5684 5682 5680 5678 5676 5674 5672 5670 5669 5668 5669 5670 5671 5672 5674 5677 5681 5685 5689 5694 5698 5702 5706 5711 5715 5719 5723 5727 5731 5734 5737 5741 5744 5748 5751 5754 5757 5760 5763
5702 5699 5696 5693 5689 5688 5685 5682 5679 5676 5675 5673 5670 5668 5666 5664 5662 5660 5658 5657 5657 5658 5659 5659 5662 5664 5668 5673 5677 5682 5687 5690 5694 5699 5703 5708 5712 5716 5720 5723 5727 5730 5734 5738 5741 5744 5748 5751 5754
5695 5692 5689 5685 5682 5680 5677 5674 5671 5668 5666 5663 5661 5659 5657 5655 5652 5650 5648 5647 5646 5646 5647 5648 5650 5653 5657 5662 5666 5671 5675 5679 5683 5688 5692 5697 5702 5706 5709 5713 5716 5720 5723 5727 5731 5735 5739 5741 5744
5688 5685 5682 5678 5675 5672 5669 5667 5664 5660 5657 5655 5653 5650 5647 5645 5643 5641 5639 5637 5636 5636 5637 5639 5640 5643 5647 5650 5655 5659 5663 5667 5672 5677 5682 5687 5691 5695 5699 5703 5707 5711 5714 5717 5721 5725 5729 5732 5735
5682 5678 5675 5671 5668 5664 5661 5658 5657 5652 5649 5646 5644 5641 5638 5636 5633 5631 5629 5628 5627 5627 5627 5628 5630 5633 5636 5640 5644 5648 5652 5657 5662 5667 5672 5676 5681 5685 5689 5693 5697 5701 5704 5707 5711 5714 5718 5721 5724
5675 5671 5667 5664 5660 5657 5654 5650 5649 5645 5641 5638 5636 5633 5630 5627 5625 5622 5620 5618 5618 5618 5618 5619 5620 5623 5626 5629 5634 5638 5642 5647 5652 5656 5661 5666 5670 5674 5678 5683 5687 5691 5694 5697 5700 5704 5707 5711 5714
5667 5664 5660 5657 5653 5650 5647 5643 5641 5637 5633 5630 5627 5625 5622 5619 5617 5615 5612 5610 5609 5609 5609 5610 5611 5614 5617 5620 5624 5628 5632 5637 5641 5645 5650 5655 5660 5664 5668 5672 5676 5680 5684 5687 5690 5693 5697 5700 5704
5660 5657 5652 5648 5644 5642 5639 5636 5634 5630 5626 5622 5619 5617 5614 5612 5609 5607 5605 5603 5601 5601 5601 5601 5602 5605 5608 5611 5614 5618 5622 5626 5631 5635 5640 5644 5649 5653 5657 5661 5665 5669 5673 5676 5679 5682 5686 5690 5693
5653 5649 5646 5641 5637 5635 5631 5628 5627 5623 5618 5615 5612 5610 5607 5604 5602 5600 5598 5596 5594 5594 5593 5593 5594 5597 5599 5602 5605 5608 5612 5616 5620 5625 5629 5633 5638 5642 5646 5650 5654 5658 5662 5665 5669 5672 5675 5679 5682
5645 5641 5638 5634 5630 5626 5624 5622 5619 5615 5611 5608 5605 5603 5600 5597 5595 5593 5591 5589 5588 5587 5586 5586 5587 5589 5591 5593 5596 5598 5602 5606 5610 5614 5618 5622 5626 5631 5634 5638 5642 5646 5650 5654 5657 5661 5664 5667 5671
5638 5634 5630 5626 5621 5618 5616 5614 5611 5608 5604 5601 5598 5595 5592 5590 5588 5586 5584 5582 5580 5579 5579 5578 5579 5581 5583 5585 5586 5589 5592 5596 5600 5603 5607 5611 5615 5619 5623 5626 5630 5634 5638 5642 5645 5649 5653 5656 5659
5630 5627 5622 5619 5615 5611 5608 5609 5604 5600 5597 5593 5590 5587 5584 5583 5581 5579 5577 5575 5573 5571 5571 5570 5571 5572 5574 5575 5577 5580 5583 5586 5589 5592 5596 5599 5603 5607 5611 5614 5618 5622 5626 5629 5633 5637 5640 5644 5647
5622 5619 5615 5612 5608 5604 5601 5603 5597 5593 5589 5585 5582 5579 5577 5575 5573 5571 5569 5567 5566 5565 5564 5563 5563 5563 5564 5566 5568 5570 5573 5575 5578 5581 5585 5588 5592 5595 5598 5602 5606 5610 5614 5617 5621 5625 5628 5631 5635